Weather History for LIBR - March, 2013

Change the Weather History Date:

Sunday, March 10, 2013

  Actual Average Record
Temperature  
Mean Temperature 62 °F -  
Max Temperature 69 °F 61 °F - ()
Min Temperature 54 °F 47 °F - ()
Degree Days  
Heating Degree Days 4    
Growing Degree Days 12 (Base 50)    
Moisture  
Dew Point 58 °F    
Average Humidity 90    
Maximum Humidity 100    
Minimum Humidity 64    
Precipitation  
Precipitation 0.00 in 0.08 in - ()
Sea Level Pressure  
Sea Level Pressure 29.69 in    
Wind  
Wind Speed 10 mph ()    
Max Wind Speed 17 mph    
Max Gust Speed -    
Visibility 6.2 miles    
Events      
T = Trace of Precipitation, MM = Missing Value Source: Averaged Metar Reports

Daily Weather History Graph

Daily Weather History Graph

Search for Another Location

Airport or City:

Trip Planner

Search our weather history database for the weather conditions in past years. The results will help you decide how hot, cold, wet, or windy it might be!

Date:

Astronomy

Mar. 10, 2013 Rise Set
Actual Time 6:07 AM CET 5:49 PM CET
Civil Twilight 5:40 AM CET 6:16 PM CET
Nautical Twilight 5:09 AM CET 6:48 PM CET
Astronomical Twilight 4:37 AM CET 7:20 PM CET
Moon 4:57 AM CET (3/10) 4:37 PM CET (3/10)
Length of Visible Light 12h 36m
Length of Day
11h 41m
Waning Crescent, 2% of the Moon is Illuminated
Mar 10
Waning Crescent
Mar 11
New
Mar 19
First Quarter
Mar 27
Full
Apr 3
Last Quarter

Hourly Weather History & Observations

Time (CET) Temp. Dew Point Humidity Pressure Visibility Wind Dir Wind Speed Gust Speed Precip Events Conditions
12:15 AM 55.4 °F 53.6 °F 94% 29.74 in 6.2 mi SSW 16.1 mph - N/A   Partly Cloudy
12:45 AM 55.4 °F 53.6 °F 94% 29.74 in 6.2 mi SSW 12.7 mph - N/A   Partly Cloudy
1:00 AM 55 °F 54 °F 93% 29.75 in 6 mi SSW 12.7 mph - -   Scattered Clouds
1:15 AM 55.4 °F 55.4 °F 100% 29.74 in 6.2 mi South 9.2 mph - N/A   Partly Cloudy
1:45 AM 57.2 °F 55.4 °F 94% 29.74 in 6.2 mi South 9.2 mph - N/A   Partly Cloudy
2:15 AM 55.4 °F 55.4 °F 100% 29.74 in 6.2 mi South 2.3 mph - N/A   Partly Cloudy
2:45 AM 55.4 °F 55.4 °F 100% 29.74 in 6.2 mi South 2.3 mph - N/A   Partly Cloudy
3:15 AM 55.4 °F 55.4 °F 100% 29.71 in 6.2 mi SSE 2.3 mph - N/A   Partly Cloudy
3:45 AM 55.4 °F 55.4 °F 100% 29.71 in 6.2 mi SSW 6.9 mph - N/A   Partly Cloudy
4:15 AM 55.4 °F 55.4 °F 100% 29.71 in 6.2 mi SSW 6.9 mph - N/A   Partly Cloudy
4:45 AM 55.4 °F 53.6 °F 94% 29.71 in - South 8.1 mph - N/A   Clear
5:15 AM 55.4 °F 53.6 °F 94% 29.71 in - South 6.9 mph - N/A   Clear
5:45 AM 53.6 °F 53.6 °F 100% 29.71 in - SSW 9.2 mph - N/A   Clear
6:15 AM 55.4 °F 53.6 °F 94% 29.71 in - SSW 9.2 mph - N/A   Clear
6:45 AM 55.4 °F 53.6 °F 94% 29.71 in - SW 13.8 mph - N/A   Clear
7:00 AM 55 °F 54 °F 93% 29.72 in 6 mi SW 13.8 mph - -   Scattered Clouds
7:15 AM 55.4 °F 53.6 °F 94% 29.71 in - SW 13.8 mph - N/A   Clear
7:45 AM 55.4 °F 53.6 °F 94% 29.71 in - SW 13.8 mph - N/A   Clear
8:15 AM 57.2 °F 55.4 °F 94% 29.71 in - SW 10.4 mph - N/A   Clear
8:45 AM 57.2 °F 57.2 °F 100% 29.71 in - SW 11.5 mph - N/A   Clear
9:15 AM 60.8 °F 59.0 °F 94% 29.71 in - SW 10.4 mph - N/A   Clear
9:45 AM 60.8 °F 59.0 °F 94% 29.71 in - SW 9.2 mph - N/A   Clear
10:15 AM 64.4 °F 59.0 °F 83% 29.71 in - SW 12.7 mph - N/A   Clear
10:45 AM 64.4 °F 59.0 °F 83% 29.71 in - SW 12.7 mph - N/A   Clear
11:15 AM 66.2 °F 59.0 °F 78% 29.71 in - SW 13.8 mph - N/A   Clear
11:45 AM 66.2 °F 59.0 °F 78% 29.71 in - SW 13.8 mph - N/A   Clear
12:15 PM 68.0 °F 59.0 °F 73% 29.71 in - SW 17.3 mph - N/A   Clear
12:45 PM 68.0 °F 59.0 °F 73% 29.71 in - SW 16.1 mph - N/A   Clear
1:00 PM 68 °F 59 °F 64% 29.71 in 6 mi SW 16.1 mph - -  
1:15 PM 68.0 °F 59.0 °F 73% 29.71 in - SW 13.8 mph - N/A   Clear
1:45 PM 68.0 °F 59.0 °F 73% 29.68 in 6.2 mi SSW 9.2 mph - N/A   Partly Cloudy
2:15 PM 69.8 °F 59.0 °F 68% 29.65 in 6.2 mi SSW 11.5 mph - N/A   Partly Cloudy
2:45 PM 69.8 °F 59.0 °F 68% 29.65 in 6.2 mi SW 11.5 mph - N/A   Partly Cloudy
3:15 PM 68.0 °F 64.4 °F 88% 29.65 in - SSW 13.8 mph - N/A   Clear
3:45 PM 68.0 °F 64.4 °F 88% 29.65 in - SSW 12.7 mph - N/A   Clear
4:15 PM 68.0 °F 62.6 °F 83% 29.65 in - SSW 11.5 mph - N/A   Clear
4:45 PM 68.0 °F 62.6 °F 83% 29.65 in - South 11.5 mph - N/A   Clear
5:15 PM 68.0 °F 60.8 °F 78% 29.65 in 6.2 mi SSW 12.7 mph - N/A   Partly Cloudy
5:45 PM 66.2 °F 60.8 °F 83% 29.65 in 6.2 mi South 11.5 mph - N/A   Partly Cloudy
6:15 PM 64.4 °F 64.4 °F 100% 29.65 in - South 8.1 mph - N/A   Clear
6:45 PM 62.6 °F 62.6 °F 100% 29.65 in - South 11.5 mph - N/A   Clear
7:00 PM 63 °F 63 °F 98% 29.66 in 6 mi South 11.5 mph - -   Partly Cloudy
7:15 PM 60.8 °F 60.8 °F 100% 29.65 in - South 11.5 mph - N/A   Clear
7:45 PM 60.8 °F 60.8 °F 100% 29.65 in - South 11.5 mph - N/A   Clear
8:15 PM 59.0 °F 59.0 °F 100% 29.65 in - South 11.5 mph - N/A   Clear
8:45 PM 59.0 °F 59.0 °F 100% 29.65 in - South 11.5 mph - N/A   Clear
9:15 PM 59.0 °F 59.0 °F 100% 29.65 in 6.2 mi South 9.2 mph - N/A   Partly Cloudy
9:45 PM 59.0 °F 57.2 °F 94% 29.65 in 6.2 mi South 9.2 mph - N/A   Partly Cloudy
10:15 PM 59.0 °F 57.2 °F 94% 29.65 in 6.2 mi SSW 11.5 mph - N/A   Partly Cloudy
10:45 PM 59.0 °F 57.2 °F 94% 29.65 in 6.2 mi SSW 10.4 mph - N/A   Partly Cloudy
11:15 PM 59.0 °F 57.2 °F 94% 29.65 in 6.2 mi SW 9.2 mph - N/A   Partly Cloudy
11:45 PM 59.0 °F 57.2 °F 94% 29.65 in 6.2 mi SW 10.4 mph - N/A   Partly Cloudy